QPF
0.00 0.00 0.00 0.00 0.00 0.00 0.00 0.00 0.00 0.00 0.00 0.01 0.01 0.01 0.01 0.01 0.01 0.01 0.01 0.01 0.01 0.03 0.03 0.03 0.03 0.03 0.03 0.04 0.05 0.05 0.05 0.06 0.07 0.06 0.05 0.06 0.05 0.07 0.08 0.07 0.06 0.06 0.06
0.00 0.00 0.00 0.00 0.00 0.00 0.00 0.00 0.00 0.00 0.00 0.00 0.00 0.00 0.00 0.00 0.01 0.01 0.01 0.01 0.01 0.02 0.03 0.03 0.03 0.03 0.03 0.04 0.05 0.06 0.06 0.05 0.06 0.08 0.08 0.06 0.07 0.08 0.09 0.09 0.07 0.07 0.08
0.00 0.00 0.00 0.00 0.00 0.00 0.00 0.00 0.00 0.00 0.00 0.00 0.00 0.00 0.00 0.00 0.00 0.01 0.01 0.01 0.01 0.02 0.02 0.02 0.03 0.03 0.02 0.02 0.03 0.05 0.06 0.05 0.06 0.09 0.11 0.09 0.07 0.06 0.07 0.08 0.10 0.11 0.10
0.00 0.00 0.00 0.00 0.00 0.00 0.00 0.00 0.00 0.00 0.00 0.00 0.00 0.00 0.00 0.00 0.00 0.00 0.00 0.01 0.01 0.01 0.02 0.01 0.02 0.03 0.02 0.03 0.04 0.06 0.08 0.07 0.08 0.08 0.09 0.10 0.07 0.07 0.06 0.08 0.11 0.11 0.12
0.00 0.00 0.00 0.00 0.00 0.00 0.00 0.01 0.01 0.00 0.00 0.00 0.00 0.00 0.00 0.00 0.00 0.00 0.00 0.00 0.01 0.01 0.01 0.00 0.01 0.01 0.02 0.04 0.06 0.09 0.10 0.08 0.08 0.08 0.08 0.10 0.10 0.09 0.09 0.08 0.11 0.12 0.13
0.01 0.01 0.00 0.00 0.00 0.00 0.00 0.01 0.01 0.00 0.00 0.00 0.00 0.00 0.00 0.00 0.00 0.00 0.00 0.00 0.00 0.00 0.00 0.00 0.00 0.01 0.01 0.02 0.04 0.06 0.07 0.06 0.07 0.08 0.09 0.10 0.10 0.13 0.13 0.09 0.08 0.11 0.11
0.01 0.01 0.01 0.01 0.00 0.00 0.00 0.00 0.00 0.00 0.00 0.00 0.00 0.00 0.00 0.00 0.00 0.00 0.00 0.00 0.00 0.00 0.00 0.00 0.01 0.01 0.01 0.03 0.03 0.03 0.03 0.02 0.04 0.07 0.08 0.09 0.10 0.12 0.13 0.13 0.11 0.13 0.13
0.00 0.01 0.01 0.01 0.01 0.00 0.00 0.00 0.00 0.00 0.00 0.00 0.00 0.00 0.00 0.00 0.00 0.00 0.00 0.00 0.00 0.00 0.00 0.01 0.01 0.02 0.01 0.02 0.04 0.04 0.02 0.01 0.02 0.03 0.05 0.06 0.06 0.07 0.10 0.12 0.10 0.10 0.14
0.00 0.01 0.01 0.01 0.01 0.01 0.00 0.00 0.00 0.00 0.00 0.00 0.00 0.00 0.00 0.00 0.00 0.00 0.00 0.00 0.00 0.00 0.00 0.00 0.01 0.01 0.01 0.01 0.02 0.03 0.03 0.02 0.02 0.02 0.03 0.04 0.05 0.06 0.07 0.07 0.08 0.08 0.12
0.00 0.00 0.00 0.01 0.01 0.01 0.00 0.00 0.00 0.00 0.00 0.00 0.00 0.00 0.00 0.00 0.00 0.00 0.00 0.00 0.00 0.00 0.00 0.00 0.00 0.00 0.01 0.01 0.01 0.02 0.02 0.01 0.01 0.02 0.02 0.03 0.04 0.04 0.04 0.04 0.05 0.06 0.08
0.00 0.00 0.00 0.00 0.01 0.00 0.00 0.00 0.00 0.00 0.00 0.00 0.00 0.00 0.00 0.00 0.00 0.00 0.00 0.00 0.00 0.00 0.00 0.00 0.00 0.00 0.00 0.00 0.00 0.01 0.01 0.01 0.01 0.02 0.03 0.02 0.03 0.03 0.02 0.01 0.02 0.04 0.05
0.01 0.01 0.00 0.00 0.00 0.01 0.01 0.00 0.00 0.00 0.00 0.00 0.00 0.00 0.00 0.00 0.00 0.00 0.00 0.00 0.00 0.00 0.00 0.00 0.00 0.00 0.00 0.00 0.00 0.00 0.00 0.01 0.01 0.01 0.01 0.03 0.03 0.02 0.01 0.00 0.01 0.01 0.02
0.00 0.01 0.01 0.01 0.00 0.00 0.01 0.01 0.01 0.00 0.00 0.00 0.00 0.00 0.00 0.00 0.00 0.00 0.00 0.00 0.00 0.00 0.00 0.00 0.00 0.00 0.00 0.00 0.00 0.00 0.00 0.00 0.01 0.01 0.01 0.03 0.03 0.02 0.01 0.01 0.00 0.00 0.00
0.00 0.00 0.01 0.01 0.01 0.00 0.01 0.01 0.01 0.01 0.00 0.00 0.00 0.00 0.00 0.00 0.00 0.00 0.00 0.00 0.00 0.00 0.00 0.00 0.00 0.00 0.00 0.00 0.00 0.00 0.00 0.01 0.01 0.01 0.01 0.03 0.03 0.02 0.01 0.01 0.00 0.00 0.00
0.00 0.00 0.01 0.01 0.01 0.01 0.01 0.01 0.01 0.01 0.01 0.00 0.00 0.00 0.00 0.00 0.00 0.00 0.00 0.00 0.00 0.00 0.00 0.00 0.00 0.00 0.00 0.00 0.00 0.00 0.00 0.00 0.01 0.01 0.01 0.02 0.02 0.02 0.02 0.01 0.01 0.00 0.01
0.00 0.00 0.01 0.01 0.01 0.01 0.01 0.01 0.01 0.01 0.01 0.00 0.00 0.00 0.00 0.00 0.00 0.00 0.00 0.00 0.00 0.00 0.00 0.00 0.00 0.00 0.00 0.00 0.00 0.00 0.00 0.00 0.00 0.00 0.01 0.01 0.01 0.01 0.01 0.02 0.02 0.02 0.02
0.00 0.00 0.01 0.01 0.01 0.01 0.01 0.01 0.01 0.01 0.00 0.00 0.00 0.00 0.00 0.00 0.00 0.00 0.00 0.00 0.00 0.00 0.00 0.00 0.00 0.00 0.00 0.00 0.00 0.00 0.00 0.00 0.01 0.01 0.01 0.01 0.01 0.00 0.01 0.01 0.02 0.02 0.02
0.00 0.00 0.01 0.01 0.01 0.02 0.02 0.02 0.01 0.01 0.01 0.00 0.00 0.00 0.00 0.00 0.00 0.00 0.00 0.00 0.00 0.00 0.00 0.00 0.00 0.00 0.00 0.00 0.00 0.00 0.00 0.00 0.00 0.00 0.01 0.01 0.01 0.01 0.00 0.00 0.00 0.01 0.01
0.00 0.00 0.01 0.01 0.01 0.02 0.02 0.02 0.02 0.02 0.01 0.01 0.00 0.00 0.00 0.00 0.00 0.01 0.01 0.00 0.00 0.00 0.00 0.00 0.00 0.00 0.00 0.00 0.00 0.00 0.00 0.00 0.00 0.00 0.00 0.01 0.01 0.01 0.01 0.01 0.01 0.01 0.01
0.01 0.01 0.01 0.01 0.02 0.02 0.03 0.03 0.02 0.02 0.02 0.01 0.01 0.01 0.01 0.00 0.00 0.00 0.01 0.01 0.01 0.01 0.01 0.00 0.00 0.00 0.00 0.00 0.00 0.00 0.00 0.00 0.00 0.00 0.00 0.00 0.01 0.01 0.01 0.01 0.01 0.01 0.00
0.01 0.01 0.02 0.02 0.02 0.02 0.02 0.03 0.03 0.02 0.02 0.01 0.01 0.01 0.02 0.01 0.01 0.01 0.00 0.01 0.01 0.01 0.01 0.01 0.01 0.01 0.01 0.01 0.00 0.01 0.01 0.01 0.01 0.01 0.01 0.01 0.01 0.01 0.01 0.01 0.01 0.01 0.00
0.01 0.01 0.02 0.02 0.02 0.02 0.02 0.02 0.02 0.02 0.02 0.01 0.01 0.01 0.01 0.01 0.01 0.01 0.01 0.01 0.01 0.01 0.01 0.02 0.02 0.02 0.01 0.01 0.01 0.01 0.01 0.01 0.01 0.01 0.01 0.01 0.01 0.01 0.01 0.01 0.01 0.01 0.01
0.01 0.01 0.01 0.01 0.02 0.02 0.02 0.02 0.02 0.02 0.02 0.02 0.01 0.01 0.01 0.01 0.01 0.01 0.01 0.01 0.01 0.01 0.01 0.01 0.01 0.01 0.01 0.01 0.01 0.00 0.00 0.00 0.00 0.00 0.00 0.00 0.00 0.00 0.00 0.00 0.00 0.01 0.01
0.01 0.01 0.01 0.01 0.01 0.02 0.02 0.02 0.02 0.02 0.02 0.02 0.01 0.01 0.01 0.01 0.01 0.01 0.01 0.02 0.02 0.02 0.02 0.01 0.01 0.01 0.01 0.01 0.01 0.01 0.01 0.00 0.00 0.00 0.00 0.00 0.00 0.00 0.00 0.00 0.00 0.00 0.00
0.02 0.01 0.01 0.01 0.01 0.02 0.02 0.02 0.02 0.01 0.01 0.02 0.02 0.01 0.01 0.01 0.01 0.01 0.02 0.02 0.03 0.03 0.03 0.02 0.02 0.02 0.01 0.01 0.01 0.01 0.01 0.01 0.00 0.00 0.00 0.00 0.00 0.00 0.00 0.00 0.00 0.00 0.00
0.02 0.01 0.01 0.01 0.01 0.02 0.02 0.02 0.02 0.02 0.02 0.02 0.02 0.01 0.01 0.01 0.01 0.01 0.01 0.02 0.02 0.03 0.04 0.04 0.03 0.02 0.02 0.02 0.01 0.01 0.01 0.01 0.00 0.00 0.00 0.00 0.00 0.00 0.00 0.00 0.00 0.00 0.00
MSLP
1012.96 1013.16 1013.38 1013.61 1013.83 1014.03 1014.19 1014.31 1014.39 1014.44 1014.46 1014.46 1014.43 1014.38 1014.31 1014.21 1014.09 1013.95 1013.81 1013.67 1013.54 1013.43 1013.35 1013.28 1013.23 1013.18 1013.12 1013.04 1012.93 1012.79 1012.62 1012.42 1012.21 1012.01 1011.82 1011.66 1011.55 1011.48 1011.46 1011.50 1011.58 1011.72 1011.91
1012.52 1012.72 1012.95 1013.19 1013.43 1013.65 1013.83 1013.97 1014.08 1014.15 1014.20 1014.23 1014.24 1014.22 1014.18 1014.11 1014.01 1013.89 1013.74 1013.60 1013.45 1013.32 1013.22 1013.13 1013.07 1013.02 1012.97 1012.91 1012.83 1012.72 1012.59 1012.43 1012.26 1012.08 1011.91 1011.76 1011.65 1011.58 1011.56 1011.59 1011.67 1011.80 1011.97
1012.25 1012.42 1012.62 1012.85 1013.07 1013.27 1013.44 1013.58 1013.69 1013.78 1013.85 1013.90 1013.95 1013.98 1013.99 1013.97 1013.91 1013.82 1013.70 1013.55 1013.39 1013.24 1013.10 1012.99 1012.90 1012.83 1012.78 1012.74 1012.69 1012.62 1012.53 1012.41 1012.27 1012.13 1011.99 1011.86 1011.76 1011.70 1011.68 1011.71 1011.78 1011.90 1012.05
1012.19 1012.30 1012.45 1012.62 1012.79 1012.94 1013.06 1013.15 1013.23 1013.30 1013.38 1013.46 1013.54 1013.63 1013.70 1013.74 1013.74 1013.70 1013.61 1013.47 1013.31 1013.14 1012.98 1012.83 1012.72 1012.63 1012.58 1012.54 1012.50 1012.46 1012.41 1012.33 1012.24 1012.13 1012.02 1011.92 1011.84 1011.79 1011.79 1011.82 1011.89 1012.00 1012.13
1012.34 1012.36 1012.43 1012.52 1012.60 1012.66 1012.69 1012.71 1012.73 1012.75 1012.80 1012.88 1012.99 1013.12 1013.25 1013.36 1013.43 1013.45 1013.40 1013.30 1013.15 1012.98 1012.80 1012.63 1012.50 1012.39 1012.33 1012.29 1012.27 1012.25 1012.23 1012.19 1012.13 1012.06 1011.98 1011.91 1011.86 1011.83 1011.84 1011.89 1011.96 1012.06 1012.18
1012.66 1012.59 1012.56 1012.54 1012.51 1012.45 1012.37 1012.28 1012.19 1012.14 1012.14 1012.19 1012.30 1012.46 1012.63 1012.79 1012.92 1013.00 1013.01 1012.95 1012.84 1012.68 1012.51 1012.34 1012.20 1012.10 1012.03 1011.99 1011.98 1011.99 1011.99 1011.98 1011.95 1011.91 1011.87 1011.83 1011.80 1011.81 1011.84 1011.90 1011.98 1012.09 1012.20
1013.09 1012.94 1012.81 1012.67 1012.52 1012.32 1012.11 1011.88 1011.68 1011.52 1011.43 1011.43 1011.50 1011.65 1011.84 1012.04 1012.22 1012.35 1012.41 1012.41 1012.34 1012.23 1012.09 1011.94 1011.82 1011.73 1011.67 1011.65 1011.66 1011.68 1011.70 1011.70 1011.70 1011.69 1011.68 1011.67 1011.68 1011.72 1011.78 1011.87 1011.97 1012.09 1012.21
1013.54 1013.32 1013.10 1012.87 1012.59 1012.27 1011.91 1011.55 1011.21 1010.93 1010.73 1010.64 1010.65 1010.75 1010.92 1011.12 1011.32 1011.49 1011.61 1011.66 1011.65 1011.59 1011.51 1011.42 1011.34 1011.29 1011.27 1011.27 1011.30 1011.34 1011.37 1011.40 1011.42 1011.43 1011.44 1011.46 1011.51 1011.58 1011.68 1011.80 1011.94 1012.08 1012.21
1013.94 1013.66 1013.38 1013.06 1012.68 1012.24 1011.77 1011.27 1010.81 1010.40 1010.08 1009.88 1009.80 1009.83 1009.94 1010.11 1010.31 1010.49 1010.64 1010.74 1010.80 1010.81 1010.81 1010.79 1010.78 1010.79 1010.82 1010.87 1010.93 1010.99 1011.04 1011.08 1011.11 1011.14 1011.18 1011.23 1011.31 1011.42 1011.56 1011.73 1011.90 1012.07 1012.22
1014.20 1013.90 1013.56 1013.18 1012.72 1012.20 1011.63 1011.03 1010.45 1009.93 1009.50 1009.19 1009.00 1008.94 1008.98 1009.09 1009.25 1009.42 1009.58 1009.72 1009.84 1009.93 1010.00 1010.07 1010.15 1010.24 1010.34 1010.44 1010.54 1010.63 1010.71 1010.76 1010.80 1010.84 1010.90 1010.97 1011.09 1011.24 1011.42 1011.63 1011.85 1012.06 1012.24
1014.31 1013.98 1013.61 1013.18 1012.68 1012.10 1011.46 1010.79 1010.13 1009.52 1008.99 1008.58 1008.29 1008.13 1008.07 1008.11 1008.21 1008.34 1008.50 1008.66 1008.82 1008.97 1009.13 1009.29 1009.46 1009.64 1009.82 1009.98 1010.13 1010.25 1010.35 1010.42 1010.47 1010.52 1010.59 1010.69 1010.83 1011.02 1011.26 1011.51 1011.78 1012.03 1012.24
1014.24 1013.89 1013.50 1013.04 1012.50 1011.88 1011.21 1010.50 1009.79 1009.13 1008.54 1008.04 1007.67 1007.42 1007.27 1007.22 1007.24 1007.32 1007.45 1007.60 1007.78 1007.98 1008.21 1008.45 1008.70 1008.96 1009.21 1009.44 1009.64 1009.80 1009.92 1010.01 1010.08 1010.15 1010.23 1010.36 1010.53 1010.76 1011.03 1011.34 1011.65 1011.94 1012.19
1014.04 1013.66 1013.23 1012.74 1012.18 1011.55 1010.86 1010.14 1009.42 1008.74 1008.11 1007.57 1007.13 1006.80 1006.57 1006.42 1006.36 1006.37 1006.44 1006.57 1006.74 1006.96 1007.22 1007.52 1007.84 1008.17 1008.49 1008.78 1009.03 1009.24 1009.39 1009.50 1009.59 1009.68 1009.79 1009.94 1010.15 1010.42 1010.73 1011.08 1011.44 1011.78 1012.07
1013.76 1013.33 1012.86 1012.33 1011.75 1011.10 1010.42 1009.71 1009.01 1008.33 1007.70 1007.14 1006.66 1006.27 1005.96 1005.73 1005.57 1005.50 1005.49 1005.55 1005.69 1005.90 1006.17 1006.50 1006.86 1007.23 1007.61 1007.95 1008.25 1008.50 1008.69 1008.84 1008.97 1009.09 1009.23 1009.42 1009.67 1009.98 1010.34 1010.73 1011.14 1011.52 1011.86
1013.46 1012.96 1012.43 1011.86 1011.25 1010.60 1009.93 1009.24 1008.57 1007.91 1007.30 1006.74 1006.24 1005.80 1005.42 1005.10 1004.85 1004.67 1004.57 1004.55 1004.62 1004.78 1005.02 1005.34 1005.71 1006.12 1006.53 1006.91 1007.26 1007.56 1007.80 1008.00 1008.18 1008.35 1008.54 1008.78 1009.08 1009.44 1009.85 1010.30 1010.75 1011.19 1011.58
1013.20 1012.63 1012.03 1011.41 1010.77 1010.11 1009.44 1008.78 1008.14 1007.52 1006.93 1006.38 1005.86 1005.38 1004.94 1004.54 1004.18 1003.89 1003.67 1003.54 1003.52 1003.59 1003.78 1004.06 1004.41 1004.82 1005.25 1005.67 1006.06 1006.42 1006.72 1006.99 1007.23 1007.48 1007.74 1008.05 1008.41 1008.83 1009.30 1009.79 1010.30 1010.79 1011.23
1013.01 1012.37 1011.70 1011.03 1010.36 1009.68 1009.03 1008.39 1007.78 1007.19 1006.62 1006.08 1005.55 1005.02 1004.51 1004.02 1003.56 1003.14 1002.79 1002.54 1002.39 1002.36 1002.46 1002.68 1002.99 1003.38 1003.82 1004.26 1004.70 1005.12 1005.50 1005.84 1006.17 1006.50 1006.85 1007.24 1007.67 1008.16 1008.69 1009.25 1009.81 1010.35 1010.85
1012.90 1012.19 1011.48 1010.77 1010.06 1009.38 1008.73 1008.11 1007.52 1006.95 1006.40 1005.85 1005.29 1004.73 1004.14 1003.55 1002.98 1002.43 1001.94 1001.55 1001.27 1001.13 1001.13 1001.26 1001.52 1001.88 1002.30 1002.77 1003.26 1003.73 1004.18 1004.62 1005.04 1005.46 1005.91 1006.38 1006.90 1007.46 1008.06 1008.68 1009.30 1009.89 1010.44
1012.83 1012.09 1011.35 1010.61 1009.90 1009.21 1008.56 1007.95 1007.37 1006.82 1006.26 1005.70 1005.11 1004.48 1003.82 1003.14 1002.45 1001.78 1001.16 1000.63 1000.22 999.96 999.85 999.90 1000.09 1000.40 1000.82 1001.29 1001.81 1002.34 1002.86 1003.38 1003.90 1004.42 1004.95 1005.52 1006.12 1006.75 1007.42 1008.09 1008.77 1009.41 1010.02
1012.75 1012.01 1011.26 1010.53 1009.81 1009.13 1008.49 1007.89 1007.32 1006.76 1006.20 1005.61 1004.98 1004.30 1003.56 1002.79 1002.00 1001.22 1000.48 999.83 999.30 998.93 998.72 998.68 998.80 999.07 999.45 999.93 1000.46 1001.03 1001.61 1002.20 1002.79 1003.39 1004.01 1004.66 1005.33 1006.03 1006.75 1007.48 1008.21 1008.90 1009.55
1012.62 1011.89 1011.16 1010.44 1009.75 1009.09 1008.46 1007.87 1007.30 1006.74 1006.16 1005.54 1004.87 1004.14 1003.34 1002.50 1001.63 1000.76 999.94 999.19 998.58 998.11 997.81 997.70 997.75 997.96 998.31 998.76 999.30 999.88 1000.49 1001.12 1001.77 1002.43 1003.11 1003.81 1004.54 1005.30 1006.07 1006.84 1007.61 1008.35 1009.04
1012.36 1011.67 1010.98 1010.30 1009.63 1009.00 1008.39 1007.81 1007.25 1006.67 1006.08 1005.44 1004.74 1003.98 1003.15 1002.26 1001.35 1000.43 999.56 998.76 998.09 997.56 997.20 997.02 997.01 997.17 997.47 997.88 998.38 998.95 999.56 1000.20 1000.87 1001.56 1002.27 1003.01 1003.77 1004.56 1005.37 1006.18 1006.98 1007.75 1008.49
1011.97 1011.31 1010.66 1010.02 1009.39 1008.78 1008.20 1007.63 1007.07 1006.50 1005.91 1005.26 1004.56 1003.79 1002.96 1002.07 1001.16 1000.25 999.37 998.57 997.88 997.32 996.93 996.70 996.64 996.74 996.97 997.33 997.78 998.30 998.87 999.48 1000.13 1000.81 1001.53 1002.27 1003.05 1003.86 1004.68 1005.51 1006.34 1007.14 1007.91
1011.42 1010.80 1010.19 1009.58 1008.98 1008.40 1007.84 1007.30 1006.75 1006.19 1005.61 1004.98 1004.30 1003.56 1002.77 1001.93 1001.06 1000.20 999.37 998.61 997.94 997.40 997.00 996.75 996.64 996.68 996.85 997.13 997.50 997.94 998.45 999.00 999.60 1000.25 1000.93 1001.66 1002.43 1003.24 1004.07 1004.91 1005.76 1006.59 1007.38
1010.76 1010.17 1009.58 1008.99 1008.42 1007.86 1007.32 1006.79 1006.27 1005.73 1005.18 1004.59 1003.97 1003.29 1002.58 1001.83 1001.06 1000.30 999.56 998.88 998.28 997.78 997.39 997.13 996.99 996.98 997.07 997.27 997.55 997.90 998.32 998.79 999.32 999.91 1000.55 1001.25 1001.99 1002.78 1003.61 1004.46 1005.31 1006.16 1006.97
1010.02 1009.44 1008.86 1008.30 1007.74 1007.20 1006.67 1006.17 1005.66 1005.17 1004.66 1004.14 1003.59 1003.02 1002.41 1001.79 1001.15 1000.52 999.91 999.34 998.83 998.40 998.05 997.80 997.65 997.59 997.62 997.73 997.92 998.17 998.50 998.88 999.34 999.85 1000.44 1001.09 1001.80 1002.57 1003.38 1004.22 1005.07 1005.92 1006.75
Thickness
5719 5717 5714 5712 5709 5707 5704 5701 5699 5696 5693 5690 5688 5685 5683 5681 5679 5676 5674 5671 5669 5668 5666 5665 5665 5665 5665 5666 5668 5669 5671 5672 5672 5677 5682 5686 5688 5691 5694 5696 5698 5701 5703
5717 5716 5713 5711 5708 5705 5703 5701 5698 5695 5693 5690 5688 5685 5683 5680 5678 5675 5673 5670 5668 5667 5666 5665 5664 5664 5663 5665 5665 5667 5668 5670 5671 5672 5676 5680 5683 5687 5689 5691 5694 5697 5699
5716 5714 5712 5709 5707 5704 5702 5700 5698 5695 5693 5690 5688 5685 5682 5680 5678 5675 5673 5671 5669 5667 5666 5664 5664 5663 5662 5664 5664 5665 5667 5668 5669 5670 5671 5674 5677 5681 5683 5685 5689 5692 5695
5714 5711 5709 5707 5704 5702 5701 5698 5697 5695 5692 5690 5687 5685 5682 5680 5678 5676 5673 5671 5669 5668 5666 5664 5663 5662 5661 5662 5663 5664 5664 5664 5665 5666 5667 5670 5672 5675 5677 5679 5681 5685 5688
5712 5709 5707 5706 5703 5700 5698 5696 5694 5692 5691 5689 5686 5684 5682 5679 5677 5675 5673 5671 5669 5667 5666 5664 5662 5660 5658 5658 5660 5661 5662 5662 5662 5662 5663 5665 5667 5668 5671 5674 5676 5678 5682
5709 5706 5704 5702 5700 5697 5695 5694 5692 5690 5689 5687 5685 5683 5680 5678 5673 5670 5669 5670 5668 5666 5664 5663 5662 5659 5657 5655 5655 5655 5656 5658 5659 5659 5660 5661 5664 5665 5666 5668 5670 5672 5674
5705 5702 5700 5699 5696 5694 5693 5691 5689 5687 5687 5685 5684 5682 5680 5676 5671 5668 5666 5667 5667 5666 5664 5662 5661 5659 5656 5657 5655 5652 5653 5652 5653 5657 5658 5658 5660 5661 5662 5663 5665 5667 5669
5701 5699 5697 5695 5693 5691 5690 5688 5687 5687 5685 5683 5682 5680 5678 5674 5669 5667 5665 5667 5667 5665 5663 5662 5660 5658 5656 5655 5655 5654 5652 5652 5652 5653 5654 5655 5656 5658 5659 5660 5661 5662 5664
5695 5694 5693 5691 5689 5688 5686 5685 5685 5685 5683 5682 5681 5678 5676 5674 5668 5665 5663 5666 5666 5664 5662 5660 5658 5657 5651 5650 5652 5651 5650 5649 5647 5646 5647 5648 5648 5650 5653 5655 5656 5656 5658
5690 5689 5689 5687 5685 5684 5684 5683 5682 5681 5680 5680 5679 5678 5676 5674 5668 5664 5661 5665 5664 5663 5660 5658 5653 5652 5649 5648 5650 5650 5647 5646 5646 5645 5644 5644 5646 5646 5647 5649 5651 5652 5653
5685 5684 5683 5682 5681 5681 5680 5679 5678 5678 5677 5677 5676 5675 5674 5671 5667 5663 5660 5662 5662 5661 5660 5657 5654 5648 5646 5645 5645 5646 5644 5643 5644 5643 5642 5642 5643 5643 5643 5644 5645 5646 5648
5677 5676 5676 5676 5676 5676 5675 5673 5673 5673 5672 5672 5672 5672 5671 5669 5665 5661 5658 5656 5657 5657 5656 5655 5651 5645 5643 5641 5641 5640 5639 5639 5641 5640 5639 5638 5638 5638 5638 5638 5638 5638 5640
5669 5669 5669 5670 5670 5669 5668 5668 5668 5668 5668 5669 5668 5667 5667 5666 5663 5657 5654 5652 5650 5651 5652 5647 5644 5641 5640 5639 5636 5636 5636 5638 5638 5637 5636 5634 5633 5633 5633 5633 5633 5633 5633
5662 5662 5663 5663 5663 5663 5661 5662 5662 5662 5662 5663 5663 5662 5662 5661 5659 5657 5654 5650 5645 5645 5644 5641 5638 5636 5636 5635 5635 5634 5634 5635 5634 5633 5632 5631 5629 5628 5628 5629 5628 5628 5629
5654 5655 5655 5654 5655 5654 5654 5654 5654 5655 5656 5654 5656 5656 5655 5655 5654 5650 5649 5648 5647 5645 5642 5640 5638 5637 5636 5635 5634 5633 5631 5631 5629 5628 5627 5626 5625 5624 5623 5623 5623 5624 5624
5644 5645 5645 5644 5644 5645 5644 5644 5643 5643 5643 5643 5643 5644 5647 5646 5643 5640 5638 5637 5636 5634 5634 5636 5635 5635 5634 5632 5631 5629 5627 5626 5625 5624 5623 5622 5621 5620 5619 5618 5618 5618 5619
5632 5633 5633 5633 5634 5634 5634 5634 5634 5633 5632 5633 5633 5633 5634 5634 5632 5631 5629 5628 5626 5625 5628 5631 5631 5631 5630 5629 5626 5625 5623 5621 5620 5619 5618 5617 5616 5615 5614 5613 5612 5612 5611
5621 5621 5621 5621 5622 5623 5624 5624 5625 5625 5626 5628 5625 5624 5623 5623 5623 5622 5620 5619 5620 5620 5624 5626 5626 5626 5625 5623 5621 5620 5618 5616 5614 5613 5612 5611 5610 5609 5608 5607 5606 5604 5604
5610 5610 5610 5610 5611 5612 5613 5614 5616 5616 5618 5619 5619 5616 5614 5613 5612 5612 5612 5616 5619 5619 5620 5620 5621 5620 5619 5617 5616 5614 5612 5610 5608 5607 5606 5604 5603 5602 5601 5600 5598 5593 5595
5599 5598 5597 5599 5601 5603 5604 5605 5606 5607 5609 5609 5610 5610 5606 5605 5607 5607 5607 5610 5613 5613 5614 5614 5614 5613 5612 5610 5609 5607 5605 5603 5602 5600 5599 5597 5596 5595 5594 5592 5591 5589 5588
5589 5589 5587 5589 5592 5594 5594 5595 5596 5597 5599 5601 5601 5601 5596 5597 5600 5602 5602 5603 5604 5605 5605 5606 5606 5605 5604 5602 5601 5599 5598 5597 5595 5593 5592 5589 5588 5587 5585 5584 5582 5581 5579
5579 5580 5580 5581 5583 5584 5585 5586 5587 5588 5591 5591 5592 5590 5586 5588 5591 5593 5594 5595 5596 5597 5597 5596 5597 5596 5595 5594 5593 5592 5591 5589 5588 5586 5584 5581 5579 5578 5576 5575 5573 5572 5570
5568 5569 5571 5573 5574 5574 5575 5577 5579 5580 5582 5583 5583 5582 5579 5581 5583 5584 5585 5586 5586 5586 5586 5586 5586 5587 5587 5586 5585 5584 5583 5582 5580 5578 5575 5573 5571 5570 5568 5566 5564 5562 5560
5557 5559 5561 5564 5565 5567 5567 5569 5570 5571 5572 5574 5574 5574 5573 5574 5575 5575 5576 5576 5576 5576 5575 5576 5576 5577 5577 5575 5575 5574 5574 5572 5570 5568 5566 5565 5563 5561 5559 5556 5554 5553 5550
5547 5549 5551 5554 5556 5558 5559 5561 5562 5563 5564 5565 5565 5565 5565 5566 5567 5567 5567 5567 5566 5566 5566 5566 5566 5566 5567 5566 5565 5564 5563 5560 5559 5558 5556 5554 5552 5550 5548 5546 5544 5541 5539
5536 5539 5541 5544 5546 5548 5550 5552 5553 5555 5555 5556 5556 5557 5557 5557 5558 5558 5558 5558 5557 5556 5556 5556 5556 5557 5557 5557 5556 5554 5551 5549 5547 5546 5545 5544 5542 5540 5538 5536 5533 5531 5528